Time,TemperatureF,DewpointF,PressureIn,WindDirection,WindDirectionDegrees,WindSpeedMPH,WindSpeedGustMPH,Humidity,HourlyPrecipIn,Conditions,Clouds,dailyrainin,SoftwareType,DateUTC
2013-05-01 00:01:00,63.0,54.9,30.05,South,182,3.0,6.0,75,0.00,,,0.00,Wunderground v.1.15,2013-05-01 04:01:00,
2013-05-01 00:02:00,63.0,54.9,30.05,South,184,3.0,6.0,75,0.00,,,0.00,Wunderground v.1.15,2013-05-01 04:02:00,
2013-05-01 00:04:00,62.9,54.9,30.06,South,180,3.0,6.0,75,0.00,,,0.00,Wunderground v.1.15,2013-05-01 04:04:00,
2013-05-01 00:08:00,62.8,55.1,30.06,South,185,2.0,6.0,76,0.00,,,0.00,Wunderground v.1.15,2013-05-01 04:08:00,
2013-05-01 00:13:00,62.6,54.9,30.06,South,191,2.0,4.0,76,0.00,,,0.00,Wunderground v.1.15,2013-05-01 04:13:00,
2013-05-01 00:16:00,62.6,54.9,30.06,SSW,194,2.0,4.0,76,0.00,,,0.00,Wunderground v.1.15,2013-05-01 04:16:00,
2013-05-01 00:22:00,62.5,54.8,30.06,South,176,2.0,5.0,76,0.00,,,0.00,Wunderground v.1.15,2013-05-01 04:22:00,
2013-05-01 00:28:00,62.4,54.7,30.06,South,176,1.0,5.0,76,0.00,,,0.00,Wunderground v.1.15,2013-05-01 04:28:00,
2013-05-01 00:33:00,62.3,55.0,30.06,South,176,1.0,2.0,77,0.00,,,0.00,Wunderground v.1.15,2013-05-01 04:33:00,
2013-05-01 00:39:00,62.3,55.0,30.06,South,185,1.0,1.0,77,0.00,,,0.00,Wunderground v.1.15,2013-05-01 04:39:00,
2013-05-01 00:44:00,62.3,55.0,30.06,South,187,2.0,3.0,77,0.00,,,0.00,Wunderground v.1.15,2013-05-01 04:44:00,
2013-05-01 00:50:00,62.3,55.0,30.07,South,190,2.0,2.0,77,0.00,,,0.00,Wunderground v.1.15,2013-05-01 04:50:00,
2013-05-01 00:55:00,62.5,55.2,30.06,SSW,194,2.0,6.0,77,0.00,,,0.00,Wunderground v.1.15,2013-05-01 04:55:00,
2013-05-01 01:01:00,62.7,55.0,30.07,SSW,203,3.0,4.0,76,0.00,,,0.00,Wunderground v.1.15,2013-05-01 05:01:00,
2013-05-01 01:06:00,62.9,55.2,30.07,SSW,206,2.0,4.0,76,0.00,,,0.00,Wunderground v.1.15,2013-05-01 05:06:00,
2013-05-01 01:12:00,63.0,55.3,30.07,SSW,192,2.0,6.0,76,0.00,,,0.00,Wunderground v.1.15,2013-05-01 05:12:00,
2013-05-01 01:18:00,63.2,55.1,30.07,SSW,194,3.0,9.0,75,0.00,,,0.00,Wunderground v.1.15,2013-05-01 05:18:00,
2013-05-01 01:23:00,63.5,55.8,30.07,SSW,211,4.0,6.0,76,0.00,,,0.00,Wunderground v.1.15,2013-05-01 05:23:00,
2013-05-01 01:29:00,63.7,55.3,30.07,SSW,206,4.0,4.0,74,0.00,,,0.00,Wunderground v.1.15,2013-05-01 05:29:00,
2013-05-01 01:34:00,63.9,55.4,30.07,SSW,198,5.0,6.0,74,0.00,,,0.00,Wunderground v.1.15,2013-05-01 05:34:00,
2013-05-01 01:40:00,64.0,55.5,30.07,SW,232,5.0,5.0,74,0.00,,,0.00,Wunderground v.1.15,2013-05-01 05:40:00,
2013-05-01 01:45:00,64.1,55.3,30.07,SSW,194,6.0,10.0,73,0.00,,,0.00,Wunderground v.1.15,2013-05-01 05:45:00,
2013-05-01 01:51:00,64.2,55.4,30.07,SSW,192,6.0,6.0,73,0.00,,,0.00,Wunderground v.1.15,2013-05-01 05:51:00,
2013-05-01 01:56:00,64.2,55.4,30.07,South,186,4.0,11.0,73,0.00,,,0.00,Wunderground v.1.15,2013-05-01 05:56:00,
2013-05-01 02:01:00,64.2,55.4,30.07,SSW,203,5.0,7.0,73,0.00,,,0.00,Wunderground v.1.15,2013-05-01 06:01:00,
2013-05-01 02:06:00,64.2,55.4,30.07,SSW,211,4.0,7.0,73,0.00,,,0.00,Wunderground v.1.15,2013-05-01 06:06:00,
2013-05-01 02:12:00,64.2,55.4,30.07,SSW,195,5.0,6.0,73,0.00,,,0.00,Wunderground v.1.15,2013-05-01 06:12:00,
2013-05-01 02:18:00,64.1,55.3,30.07,SW,216,4.0,7.0,73,0.00,,,0.00,Wunderground v.1.15,2013-05-01 06:18:00,
2013-05-01 02:24:00,63.9,55.1,30.07,SSW,213,4.0,9.0,73,0.00,,,0.00,Wunderground v.1.15,2013-05-01 06:24:00,
2013-05-01 02:30:00,63.9,55.1,30.07,SW,230,5.0,5.0,73,0.00,,,0.00,Wunderground v.1.15,2013-05-01 06:30:00,
2013-05-01 02:35:00,63.9,55.1,30.07,SSW,195,4.0,9.0,73,0.00,,,0.00,Wunderground v.1.15,2013-05-01 06:35:00,
2013-05-01 02:41:00,63.8,55.0,30.07,SW,216,4.0,6.0,73,0.00,,,0.00,Wunderground v.1.15,2013-05-01 06:41:00,
2013-05-01 02:46:00,63.8,55.0,30.08,SSW,206,4.0,6.0,73,0.00,,,0.00,Wunderground v.1.15,2013-05-01 06:46:00,
2013-05-01 02:52:00,63.8,55.0,30.07,SSW,207,5.0,7.0,73,0.00,,,0.00,Wunderground v.1.15,2013-05-01 06:52:00,
2013-05-01 02:58:00,63.8,55.0,30.08,SSW,192,5.0,7.0,73,0.00,,,0.00,Wunderground v.1.15,2013-05-01 06:58:00,
2013-05-01 03:03:00,63.8,55.0,30.08,SSW,211,4.0,7.0,73,0.00,,,0.00,Wunderground v.1.15,2013-05-01 07:03:00,
2013-05-01 03:09:00,63.7,55.3,30.08,SSW,205,4.0,9.0,74,0.00,,,0.00,Wunderground v.1.15,2013-05-01 07:09:00,
2013-05-01 03:15:00,63.6,55.2,30.08,SSW,207,4.0,9.0,74,0.00,,,0.00,Wunderground v.1.15,2013-05-01 07:15:00,
2013-05-01 03:20:00,63.6,55.2,30.08,SSW,196,4.0,5.0,74,0.00,,,0.00,Wunderground v.1.15,2013-05-01 07:20:00,
2013-05-01 03:26:00,63.4,55.0,30.08,SSW,198,4.0,5.0,74,0.00,,,0.00,Wunderground v.1.15,2013-05-01 07:26:00,
2013-05-01 03:31:00,63.3,54.9,30.08,South,191,3.0,8.0,74,0.00,,,0.00,Wunderground v.1.15,2013-05-01 07:31:00,
2013-05-01 03:37:00,63.3,54.9,30.08,South,175,4.0,8.0,74,0.00,,,0.00,Wunderground v.1.15,2013-05-01 07:37:00,
2013-05-01 03:42:00,63.3,54.9,30.08,SSW,193,3.0,7.0,74,0.00,,,0.00,Wunderground v.1.15,2013-05-01 07:42:00,
2013-05-01 03:48:00,63.2,54.8,30.08,WNW,286,3.0,7.0,74,0.00,,,0.00,Wunderground v.1.15,2013-05-01 07:48:00,
2013-05-01 03:53:00,63.1,55.0,30.09,South,177,2.0,3.0,75,0.00,,,0.00,Wunderground v.1.15,2013-05-01 07:53:00,
2013-05-01 03:59:00,63.0,54.9,30.09,SSW,213,4.0,4.0,75,0.00,,,0.00,Wunderground v.1.15,2013-05-01 07:59:00,
2013-05-01 04:04:00,62.9,54.9,30.09,SSW,212,3.0,4.0,75,0.00,,,0.00,Wunderground v.1.15,2013-05-01 08:04:00,
2013-05-01 04:10:00,62.7,54.7,30.09,SSW,207,2.0,2.0,75,0.00,,,0.00,Wunderground v.1.15,2013-05-01 08:10:00,
2013-05-01 04:16:00,62.5,54.8,30.10,SSW,212,1.0,2.0,76,0.00,,,0.00,Wunderground v.1.15,2013-05-01 08:16:00,
2013-05-01 04:21:00,62.3,54.6,30.10,SSW,213,1.0,1.0,76,0.00,,,0.00,Wunderground v.1.15,2013-05-01 08:21:00,
2013-05-01 04:26:00,62.2,54.5,30.10,SW,219,2.0,5.0,76,0.00,,,0.00,Wunderground v.1.15,2013-05-01 08:26:00,
2013-05-01 04:32:00,62.2,54.5,30.10,SSW,194,2.0,7.0,76,0.00,,,0.00,Wunderground v.1.15,2013-05-01 08:32:00,
2013-05-01 04:38:00,62.1,54.8,30.10,SW,217,3.0,7.0,77,0.00,,,0.00,Wunderground v.1.15,2013-05-01 08:38:00,
2013-05-01 04:43:00,62.0,54.7,30.10,SSW,194,2.0,5.0,77,0.00,,,0.00,Wunderground v.1.15,2013-05-01 08:43:00,
2013-05-01 04:49:00,61.9,54.6,30.10,SSW,204,2.0,2.0,77,0.00,,,0.00,Wunderground v.1.15,2013-05-01 08:49:00,
2013-05-01 04:55:00,61.9,54.6,30.10,SSW,206,2.0,6.0,77,0.00,,,0.00,Wunderground v.1.15,2013-05-01 08:55:00,
2013-05-01 05:01:00,61.8,54.5,30.10,SSW,200,2.0,4.0,77,0.00,,,0.00,Wunderground v.1.15,2013-05-01 09:01:00,
2013-05-01 05:06:00,61.7,54.4,30.10,SSW,200,1.0,4.0,77,0.00,,,0.00,Wunderground v.1.15,2013-05-01 09:06:00,
2013-05-01 05:11:00,61.6,54.3,30.10,SSW,200,1.0,1.0,77,0.00,,,0.00,Wunderground v.1.15,2013-05-01 09:11:00,
2013-05-01 05:16:00,61.4,54.1,30.11,SSW,200,0.0,1.0,77,0.00,,,0.00,Wunderground v.1.15,2013-05-01 09:16:00,
2013-05-01 05:22:00,61.1,54.2,30.11,SSW,200,0.0,0.0,78,0.00,,,0.00,Wunderground v.1.15,2013-05-01 09:22:00,
2013-05-01 05:28:00,60.8,53.9,30.11,SSW,200,0.0,3.0,78,0.00,,,0.00,Wunderground v.1.15,2013-05-01 09:28:00,
2013-05-01 05:33:00,60.7,54.1,30.11,SSW,200,0.0,0.0,79,0.00,,,0.00,Wunderground v.1.15,2013-05-01 09:33:00,
2013-05-01 05:39:00,60.5,54.0,30.11,SSW,195,1.0,1.0,79,0.00,,,0.00,Wunderground v.1.15,2013-05-01 09:39:00,
2013-05-01 05:44:00,60.5,54.0,30.12,South,190,1.0,4.0,79,0.00,,,0.00,Wunderground v.1.15,2013-05-01 09:44:00,
2013-05-01 05:50:00,60.4,54.2,30.13,South,190,1.0,4.0,80,0.00,,,0.00,Wunderground v.1.15,2013-05-01 09:50:00,
2013-05-01 05:56:00,60.4,54.2,30.13,South,183,1.0,4.0,80,0.00,,,0.00,Wunderground v.1.15,2013-05-01 09:56:00,
2013-05-01 06:01:00,60.3,54.1,30.13,South,184,1.0,1.0,80,0.00,,,0.00,Wunderground v.1.15,2013-05-01 10:01:00,
2013-05-01 06:06:00,60.2,54.0,30.13,South,185,1.0,2.0,80,0.00,,,0.00,Wunderground v.1.15,2013-05-01 10:06:00,
2013-05-01 06:12:00,60.2,54.0,30.13,South,188,1.0,4.0,80,0.00,,,0.00,Wunderground v.1.15,2013-05-01 10:12:00,
2013-05-01 06:18:00,60.2,54.0,30.13,South,188,1.0,4.0,80,0.00,,,0.00,Wunderground v.1.15,2013-05-01 10:18:00,
2013-05-01 06:23:00,60.1,53.9,30.13,South,188,1.0,2.0,80,0.00,,,0.00,Wunderground v.1.15,2013-05-01 10:23:00,
2013-05-01 06:29:00,59.9,54.1,30.13,South,187,0.0,0.0,81,0.00,,,0.00,Wunderground v.1.15,2013-05-01 10:29:00,
2013-05-01 06:34:00,59.6,53.8,30.14,South,188,0.0,0.0,81,0.00,,,0.00,Wunderground v.1.15,2013-05-01 10:34:00,
2013-05-01 06:40:00,59.3,53.8,30.14,South,187,0.0,0.0,82,0.00,,,0.00,Wunderground v.1.15,2013-05-01 10:40:00,
2013-05-01 06:45:00,59.1,53.6,30.14,South,187,0.0,1.0,82,0.00,,,0.00,Wunderground v.1.15,2013-05-01 10:45:00,
2013-05-01 06:51:00,59.0,53.5,30.15,South,187,1.0,1.0,82,0.00,,,0.00,Wunderground v.1.15,2013-05-01 10:51:00,
2013-05-01 06:56:00,59.0,53.5,30.15,South,173,2.0,4.0,82,0.00,,,0.00,Wunderground v.1.15,2013-05-01 10:56:00,
2013-05-01 07:01:00,59.0,53.8,30.15,South,173,1.0,1.0,83,0.00,,,0.00,Wunderground v.1.15,2013-05-01 11:01:00,
2013-05-01 07:07:00,59.0,53.8,30.15,South,175,1.0,5.0,83,0.00,,,0.00,Wunderground v.1.15,2013-05-01 11:07:00,
2013-05-01 07:12:00,59.1,53.6,30.16,SSE,160,2.0,2.0,82,0.00,,,0.00,Wunderground v.1.15,2013-05-01 11:12:00,
2013-05-01 07:18:00,59.3,53.8,30.16,South,174,1.0,4.0,82,0.00,,,0.00,Wunderground v.1.15,2013-05-01 11:18:00,
2013-05-01 07:23:00,59.3,53.8,30.16,SSE,161,1.0,3.0,82,0.00,,,0.00,Wunderground v.1.15,2013-05-01 11:23:00,
2013-05-01 07:29:00,59.5,54.0,30.16,South,177,1.0,3.0,82,0.00,,,0.00,Wunderground v.1.15,2013-05-01 11:29:00,
2013-05-01 07:34:00,59.6,54.1,30.16,South,169,1.0,3.0,82,0.00,,,0.00,Wunderground v.1.15,2013-05-01 11:34:00,
2013-05-01 07:40:00,59.8,54.3,30.17,SSW,192,1.0,3.0,82,0.00,,,0.00,Wunderground v.1.15,2013-05-01 11:40:00,
2013-05-01 07:46:00,60.0,54.2,30.17,South,186,3.0,6.0,81,0.00,,,0.00,Wunderground v.1.15,2013-05-01 11:46:00,
2013-05-01 07:52:00,60.3,54.4,30.17,South,187,4.0,4.0,81,0.00,,,0.00,Wunderground v.1.15,2013-05-01 11:52:00,
2013-05-01 07:58:00,60.5,54.6,30.17,SSE,159,3.0,6.0,81,0.00,,,0.00,Wunderground v.1.15,2013-05-01 11:58:00,
2013-05-01 08:04:00,60.8,54.6,30.18,South,185,2.0,6.0,80,0.00,,,0.00,Wunderground v.1.15,2013-05-01 12:04:00,
2013-05-01 08:10:00,61.0,54.8,30.17,SSW,199,2.0,6.0,80,0.00,,,0.00,Wunderground v.1.15,2013-05-01 12:10:00,
2013-05-01 08:15:00,61.2,55.0,30.18,South,190,2.0,6.0,80,0.00,,,0.00,Wunderground v.1.15,2013-05-01 12:15:00,
2013-05-01 08:21:00,61.6,55.0,30.18,SW,221,2.0,5.0,79,0.00,,,0.00,Wunderground v.1.15,2013-05-01 12:21:00,
2013-05-01 08:26:00,61.9,55.3,30.18,South,190,3.0,10.0,79,0.00,,,0.00,Wunderground v.1.15,2013-05-01 12:26:00,
2013-05-01 08:32:00,62.2,55.3,30.18,SSW,198,3.0,5.0,78,0.00,,,0.00,Wunderground v.1.15,2013-05-01 12:32:00,
2013-05-01 08:38:00,62.5,55.5,30.18,South,189,2.0,5.0,78,0.00,,,0.00,Wunderground v.1.15,2013-05-01 12:38:00,
2013-05-01 08:43:00,62.8,55.5,30.18,SW,222,3.0,6.0,77,0.00,,,0.00,Wunderground v.1.15,2013-05-01 12:43:00,
2013-05-01 08:49:00,63.2,55.5,30.18,South,184,4.0,4.0,76,0.00,,,0.00,Wunderground v.1.15,2013-05-01 12:49:00,
2013-05-01 08:54:00,63.5,55.8,30.19,SSW,193,4.0,5.0,76,0.00,,,0.00,Wunderground v.1.15,2013-05-01 12:54:00,
2013-05-01 09:00:00,64.0,55.9,30.18,South,173,3.0,3.0,75,0.00,,,0.00,Wunderground v.1.15,2013-05-01 13:00:00,
2013-05-01 09:05:00,64.5,56.0,30.18,SSW,202,3.0,6.0,74,0.00,,,0.00,Wunderground v.1.15,2013-05-01 13:05:00,
2013-05-01 09:11:00,65.0,56.5,30.19,SSW,195,4.0,4.0,74,0.00,,,0.00,Wunderground v.1.15,2013-05-01 13:11:00,
2013-05-01 09:16:00,65.5,56.6,30.19,SSW,201,4.0,7.0,73,0.00,,,0.00,Wunderground v.1.15,2013-05-01 13:16:00,
2013-05-01 09:21:00,65.9,56.2,30.19,South,191,4.0,6.0,71,0.00,,,0.00,Wunderground v.1.15,2013-05-01 13:21:00,
2013-05-01 09:26:00,66.2,56.5,30.19,South,181,4.0,6.0,71,0.00,,,0.00,Wunderground v.1.15,2013-05-01 13:26:00,
2013-05-01 09:32:00,66.7,56.6,30.19,South,182,4.0,5.0,70,0.00,,,0.00,Wunderground v.1.15,2013-05-01 13:32:00,
2013-05-01 09:38:00,67.2,57.1,30.19,South,189,4.0,9.0,70,0.00,,,0.00,Wunderground v.1.15,2013-05-01 13:38:00,
2013-05-01 09:43:00,67.5,57.0,30.19,South,176,5.0,10.0,69,0.00,,,0.00,Wunderground v.1.15,2013-05-01 13:43:00,
2013-05-01 09:49:00,67.9,56.9,30.19,SSW,193,5.0,5.0,68,0.00,,,0.00,Wunderground v.1.15,2013-05-01 13:49:00,
2013-05-01 09:54:00,68.1,57.1,30.19,SSW,192,5.0,10.0,68,0.00,,,0.00,Wunderground v.1.15,2013-05-01 13:54:00,
2013-05-01 10:00:00,68.4,57.4,30.19,SSW,199,5.0,9.0,68,0.00,,,0.00,Wunderground v.1.15,2013-05-01 14:00:00,
2013-05-01 10:05:00,68.8,57.4,30.19,SSW,194,5.0,9.0,67,0.00,,,0.00,Wunderground v.1.15,2013-05-01 14:05:00,
2013-05-01 10:10:00,69.2,57.8,30.19,SSE,164,4.0,5.0,67,0.00,,,0.00,Wunderground v.1.15,2013-05-01 14:10:00,
2013-05-01 10:16:00,69.8,57.9,30.19,SSW,192,3.0,8.0,66,0.00,,,0.00,Wunderground v.1.15,2013-05-01 14:16:00,
2013-05-01 10:21:00,70.4,58.5,30.19,South,191,3.0,3.0,66,0.00,,,0.00,Wunderground v.1.15,2013-05-01 14:21:00,
2013-05-01 10:26:00,70.9,58.5,30.19,South,190,2.0,6.0,65,0.00,,,0.00,Wunderground v.1.15,2013-05-01 14:26:00,
2013-05-01 10:32:00,71.5,58.7,30.19,South,183,3.0,7.0,64,0.00,,,0.00,Wunderground v.1.15,2013-05-01 14:32:00,
2013-05-01 10:38:00,72.0,58.3,30.19,South,178,4.0,9.0,62,0.00,,,0.00,Wunderground v.1.15,2013-05-01 14:38:00,
2013-05-01 10:44:00,72.4,58.6,30.19,South,190,3.0,6.0,62,0.00,,,0.00,Wunderground v.1.15,2013-05-01 14:44:00,
2013-05-01 10:50:00,72.8,58.6,30.19,SSW,198,4.0,4.0,61,0.00,,,0.00,Wunderground v.1.15,2013-05-01 14:50:00,
2013-05-01 10:55:00,73.3,59.0,30.19,SSW,205,3.0,4.0,61,0.00,,,0.00,Wunderground v.1.15,2013-05-01 14:55:00,
2013-05-01 11:01:00,73.8,59.0,30.19,South,177,3.0,5.0,60,0.00,,,0.00,Wunderground v.1.15,2013-05-01 15:01:00,
2013-05-01 11:06:00,74.2,59.4,30.19,SSW,198,3.0,5.0,60,0.00,,,0.00,Wunderground v.1.15,2013-05-01 15:06:00,
2013-05-01 11:12:00,74.6,60.3,30.19,SSW,201,3.0,4.0,61,0.00,,,0.00,Wunderground v.1.15,2013-05-01 15:12:00,
2013-05-01 11:18:00,74.9,59.1,30.19,South,181,3.0,10.0,58,0.00,,,0.00,Wunderground v.1.15,2013-05-01 15:18:00,
2013-05-01 11:24:00,74.9,59.6,30.19,South,175,4.0,11.0,59,0.00,,,0.00,Wunderground v.1.15,2013-05-01 15:24:00,
2013-05-01 11:30:00,75.0,59.7,30.19,SW,217,4.0,5.0,59,0.00,,,0.00,Wunderground v.1.15,2013-05-01 15:30:00,
2013-05-01 11:35:00,75.3,59.5,30.19,SSW,206,3.0,5.0,58,0.00,,,0.00,Wunderground v.1.15,2013-05-01 15:35:00,
2013-05-01 11:41:00,75.7,59.4,30.19,SSW,200,3.0,6.0,57,0.00,,,0.00,Wunderground v.1.15,2013-05-01 15:41:00,
2013-05-01 11:46:00,75.8,59.0,30.19,SW,224,4.0,9.0,56,0.00,,,0.00,Wunderground v.1.15,2013-05-01 15:46:00,
2013-05-01 11:52:00,76.0,58.2,30.19,South,188,4.0,7.0,54,0.00,,,0.00,Wunderground v.1.15,2013-05-01 15:52:00,
2013-05-01 11:58:00,76.4,59.5,30.19,South,190,3.0,7.0,56,0.00,,,0.00,Wunderground v.1.15,2013-05-01 15:58:00,
2013-05-01 12:03:00,76.6,59.7,30.19,SSE,161,4.0,11.0,56,0.00,,,0.00,Wunderground v.1.15,2013-05-01 16:03:00,
2013-05-01 12:09:00,77.0,59.6,30.19,SSW,195,5.0,6.0,55,0.00,,,0.00,Wunderground v.1.15,2013-05-01 16:09:00,
2013-05-01 12:14:00,77.1,58.1,30.19,South,183,4.0,9.0,52,0.00,,,0.00,Wunderground v.1.15,2013-05-01 16:14:00,
2013-05-01 12:19:00,77.4,58.4,30.19,SSE,155,4.0,4.0,52,0.00,,,0.00,Wunderground v.1.15,2013-05-01 16:19:00,
2013-05-01 12:25:00,77.5,57.9,30.19,SSW,194,4.0,9.0,51,0.00,,,0.00,Wunderground v.1.15,2013-05-01 16:25:00,
2013-05-01 12:30:00,77.5,58.5,30.19,SSW,209,4.0,4.0,52,0.00,,,0.00,Wunderground v.1.15,2013-05-01 16:30:00,
2013-05-01 12:36:00,77.9,59.4,30.19,SSW,211,2.0,4.0,53,0.00,,,0.00,Wunderground v.1.15,2013-05-01 16:36:00,
2013-05-01 12:42:00,78.1,59.0,30.19,SSW,213,2.0,8.0,52,0.00,,,0.00,Wunderground v.1.15,2013-05-01 16:42:00,
2013-05-01 12:48:00,78.1,59.6,30.19,South,185,2.0,8.0,53,0.00,,,0.00,Wunderground v.1.15,2013-05-01 16:48:00,
2013-05-01 12:53:00,78.3,58.7,30.19,South,182,3.0,9.0,51,0.00,,,0.00,Wunderground v.1.15,2013-05-01 16:53:00,
2013-05-01 12:59:00,78.5,58.9,30.18,SSW,200,3.0,6.0,51,0.00,,,0.00,Wunderground v.1.15,2013-05-01 16:59:00,
2013-05-01 13:04:00,78.4,59.9,30.18,SSW,205,4.0,10.0,53,0.00,,,0.00,Wunderground v.1.15,2013-05-01 17:04:00,
2013-05-01 13:09:00,78.6,59.5,30.18,SE,138,4.0,4.0,52,0.00,,,0.00,Wunderground v.1.15,2013-05-01 17:09:00,
2013-05-01 13:14:00,78.7,59.0,30.18,South,185,3.0,7.0,51,0.00,,,0.00,Wunderground v.1.15,2013-05-01 17:14:00,
2013-05-01 13:20:00,78.8,58.6,30.18,SSW,192,4.0,9.0,50,0.00,,,0.00,Wunderground v.1.15,2013-05-01 17:20:00,
2013-05-01 13:25:00,79.0,60.4,30.18,South,169,4.0,9.0,53,0.00,,,0.00,Wunderground v.1.15,2013-05-01 17:25:00,
2013-05-01 13:31:00,79.2,59.0,30.18,South,173,3.0,4.0,50,0.00,,,0.00,Wunderground v.1.15,2013-05-01 17:31:00,
2013-05-01 13:36:00,79.2,59.0,30.18,SW,221,4.0,10.0,50,0.00,,,0.00,Wunderground v.1.15,2013-05-01 17:36:00,
2013-05-01 13:42:00,79.2,58.4,30.18,SE,145,5.0,7.0,49,0.00,,,0.00,Wunderground v.1.15,2013-05-01 17:42:00,
2013-05-01 13:48:00,79.2,56.6,30.18,South,186,5.0,7.0,46,0.00,,,0.00,Wunderground v.1.15,2013-05-01 17:48:00,
2013-05-01 13:54:00,79.2,57.2,30.18,South,169,5.0,10.0,47,0.00,,,0.00,Wunderground v.1.15,2013-05-01 17:54:00,
2013-05-01 13:59:00,79.1,57.1,30.18,SW,225,6.0,6.0,47,0.00,,,0.00,Wunderground v.1.15,2013-05-01 17:59:00,
2013-05-01 14:05:00,79.2,56.6,30.18,SSW,201,6.0,11.0,46,0.00,,,0.00,Wunderground v.1.15,2013-05-01 18:05:00,
2013-05-01 14:11:00,79.0,55.8,30.18,SSW,205,7.0,7.0,45,0.00,,,0.00,Wunderground v.1.15,2013-05-01 18:11:00,
2013-05-01 14:16:00,79.3,57.3,30.18,SE,146,5.0,7.0,47,0.00,,,0.00,Wunderground v.1.15,2013-05-01 18:16:00,
2013-05-01 14:22:00,79.5,56.9,30.18,SSW,202,4.0,5.0,46,0.00,,,0.00,Wunderground v.1.15,2013-05-01 18:22:00,
2013-05-01 14:28:00,79.5,58.1,30.18,South,184,6.0,12.0,48,0.00,,,0.00,Wunderground v.1.15,2013-05-01 18:28:00,
2013-05-01 14:33:00,79.6,57.0,30.18,South,188,6.0,14.0,46,0.00,,,0.00,Wunderground v.1.15,2013-05-01 18:33:00,
2013-05-01 14:38:00,79.8,57.8,30.18,SSW,199,5.0,14.0,47,0.00,,,0.00,Wunderground v.1.15,2013-05-01 18:38:00,
2013-05-01 14:44:00,80.1,58.6,30.18,SSW,203,4.0,9.0,48,0.00,,,0.00,Wunderground v.1.15,2013-05-01 18:44:00,
2013-05-01 14:50:00,79.9,57.3,30.18,SSE,168,6.0,6.0,46,0.00,,,0.00,Wunderground v.1.15,2013-05-01 18:50:00,
2013-05-01 14:55:00,79.9,57.9,30.18,SSW,213,7.0,10.0,47,0.00,,,0.00,Wunderground v.1.15,2013-05-01 18:55:00,
2013-05-01 15:01:00,80.1,57.5,30.18,South,188,5.0,6.0,46,0.00,,,0.00,Wunderground v.1.15,2013-05-01 19:01:00,
2013-05-01 15:06:00,80.2,56.9,30.18,South,175,5.0,10.0,45,0.00,,,0.00,Wunderground v.1.15,2013-05-01 19:06:00,
2013-05-01 15:12:00,80.3,58.2,30.18,SW,218,6.0,11.0,47,0.00,,,0.00,Wunderground v.1.15,2013-05-01 19:12:00,
2013-05-01 15:18:00,80.3,57.0,30.18,SSW,200,5.0,11.0,45,0.00,,,0.00,Wunderground v.1.15,2013-05-01 19:18:00,
2013-05-01 15:24:00,80.4,57.7,30.18,SSW,201,6.0,10.0,46,0.00,,,0.00,Wunderground v.1.15,2013-05-01 19:24:00,
2013-05-01 15:30:00,80.4,58.3,30.18,South,180,6.0,6.0,47,0.00,,,0.00,Wunderground v.1.15,2013-05-01 19:30:00,
2013-05-01 15:35:00,80.6,58.5,30.18,South,190,4.0,11.0,47,0.00,,,0.00,Wunderground v.1.15,2013-05-01 19:35:00,
2013-05-01 15:40:00,80.6,58.5,30.18,SSW,207,4.0,4.0,47,0.00,,,0.00,Wunderground v.1.15,2013-05-01 19:40:00,
2013-05-01 15:45:00,80.8,58.7,30.18,SSW,199,4.0,5.0,47,0.00,,,0.00,Wunderground v.1.15,2013-05-01 19:45:00,
2013-05-01 15:51:00,80.9,56.9,30.18,South,188,4.0,9.0,44,0.00,,,0.00,Wunderground v.1.15,2013-05-01 19:51:00,
2013-05-01 15:56:00,80.8,59.3,30.18,SSW,194,5.0,9.0,48,0.00,,,0.00,Wunderground v.1.15,2013-05-01 19:56:00,
2013-05-01 16:02:00,81.0,57.7,30.18,SSW,202,5.0,9.0,45,0.00,,,0.00,Wunderground v.1.15,2013-05-01 20:02:00,
2013-05-01 16:08:00,80.7,57.4,30.17,SSW,194,7.0,9.0,45,0.00,,,0.00,Wunderground v.1.15,2013-05-01 20:08:00,
2013-05-01 16:13:00,80.5,57.8,30.17,South,188,7.0,13.0,46,0.00,,,0.00,Wunderground v.1.15,2013-05-01 20:13:00,
2013-05-01 16:19:00,80.6,58.5,30.17,SSW,194,7.0,7.0,47,0.00,,,0.00,Wunderground v.1.15,2013-05-01 20:19:00,
2013-05-01 16:24:00,80.5,57.2,30.17,SSE,167,6.0,8.0,45,0.00,,,0.00,Wunderground v.1.15,2013-05-01 20:24:00,
2013-05-01 16:29:00,80.6,57.9,30.17,SSW,195,6.0,6.0,46,0.00,,,0.00,Wunderground v.1.15,2013-05-01 20:29:00,
2013-05-01 16:35:00,80.6,57.9,30.17,SSW,207,6.0,10.0,46,0.00,,,0.00,Wunderground v.1.15,2013-05-01 20:35:00,
2013-05-01 16:40:00,80.7,57.4,30.17,SSW,204,6.0,6.0,45,0.00,,,0.00,Wunderground v.1.15,2013-05-01 20:40:00,
2013-05-01 16:45:00,80.7,57.4,30.17,SW,217,7.0,12.0,45,0.00,,,0.00,Wunderground v.1.15,2013-05-01 20:45:00,
2013-05-01 16:51:00,80.8,57.5,30.18,SSW,205,6.0,7.0,45,0.00,,,0.00,Wunderground v.1.15,2013-05-01 20:51:00,
2013-05-01 16:56:00,81.1,57.7,30.18,SSE,153,4.0,7.0,45,0.00,,,0.00,Wunderground v.1.15,2013-05-01 20:56:00,
2013-05-01 17:02:00,80.8,56.9,30.18,South,176,6.0,10.0,44,0.00,,,0.00,Wunderground v.1.15,2013-05-01 21:02:00,
2013-05-01 17:08:00,80.8,57.5,30.18,South,176,6.0,15.0,45,0.00,,,0.00,Wunderground v.1.15,2013-05-01 21:08:00,
2013-05-01 17:13:00,80.6,57.3,30.18,South,172,7.0,15.0,45,0.00,,,0.00,Wunderground v.1.15,2013-05-01 21:13:00,
2013-05-01 17:19:00,80.6,57.9,30.18,SW,215,7.0,7.0,46,0.00,,,0.00,Wunderground v.1.15,2013-05-01 21:19:00,
2013-05-01 17:24:00,80.7,57.4,30.18,SSE,165,6.0,10.0,45,0.00,,,0.00,Wunderground v.1.15,2013-05-01 21:24:00,
2013-05-01 17:30:00,80.5,57.8,30.18,South,178,7.0,13.0,46,0.00,,,0.00,Wunderground v.1.15,2013-05-01 21:30:00,
2013-05-01 17:35:00,80.2,56.9,30.18,SSW,202,8.0,13.0,45,0.00,,,0.00,Wunderground v.1.15,2013-05-01 21:35:00,
2013-05-01 17:40:00,80.3,57.0,30.18,SSW,207,7.0,9.0,45,0.00,,,0.00,Wunderground v.1.15,2013-05-01 21:40:00,
2013-05-01 17:46:00,80.1,56.8,30.18,South,185,7.0,13.0,45,0.00,,,0.00,Wunderground v.1.15,2013-05-01 21:46:00,
2013-05-01 17:52:00,80.1,58.0,30.18,SSW,198,7.0,7.0,47,0.00,,,0.00,Wunderground v.1.15,2013-05-01 21:52:00,
2013-05-01 17:58:00,80.0,56.7,30.18,SSW,209,6.0,12.0,45,0.00,,,0.00,Wunderground v.1.15,2013-05-01 21:58:00,
2013-05-01 18:03:00,79.9,56.7,30.18,South,174,7.0,12.0,45,0.00,,,0.00,Wunderground v.1.15,2013-05-01 22:03:00,
2013-05-01 18:09:00,79.8,57.2,30.18,SSW,196,7.0,7.0,46,0.00,,,0.00,Wunderground v.1.15,2013-05-01 22:09:00,
2013-05-01 18:14:00,79.8,57.2,30.18,SW,222,7.0,12.0,46,0.00,,,0.00,Wunderground v.1.15,2013-05-01 22:14:00,
2013-05-01 18:20:00,79.8,57.2,30.18,SSW,194,6.0,7.0,46,0.00,,,0.00,Wunderground v.1.15,2013-05-01 22:20:00,
2013-05-01 18:25:00,79.7,56.5,30.18,SSW,200,5.0,11.0,45,0.00,,,0.00,Wunderground v.1.15,2013-05-01 22:25:00,
2013-05-01 18:31:00,79.5,56.3,30.18,SW,215,6.0,11.0,45,0.00,,,0.00,Wunderground v.1.15,2013-05-01 22:31:00,
2013-05-01 18:36:00,79.3,56.7,30.18,South,175,6.0,11.0,46,0.00,,,0.00,Wunderground v.1.15,2013-05-01 22:36:00,
2013-05-01 18:42:00,79.2,55.4,30.18,South,188,6.0,7.0,44,0.00,,,0.00,Wunderground v.1.15,2013-05-01 22:42:00,
2013-05-01 18:48:00,79.1,55.9,30.18,South,182,6.0,12.0,45,0.00,,,0.00,Wunderground v.1.15,2013-05-01 22:48:00,
2013-05-01 18:53:00,79.1,56.5,30.18,South,191,6.0,9.0,46,0.00,,,0.00,Wunderground v.1.15,2013-05-01 22:53:00,
2013-05-01 18:58:00,79.0,55.8,30.18,SSW,210,5.0,9.0,45,0.00,,,0.00,Wunderground v.1.15,2013-05-01 22:58:00,
2013-05-01 19:03:00,78.9,56.4,30.18,South,187,5.0,7.0,46,0.00,,,0.00,Wunderground v.1.15,2013-05-01 23:03:00,
2013-05-01 19:09:00,78.7,55.6,30.18,South,183,4.0,4.0,45,0.00,,,0.00,Wunderground v.1.15,2013-05-01 23:09:00,
2013-05-01 19:14:00,78.6,56.1,30.18,SSE,165,6.0,16.0,46,0.00,,,0.00,Wunderground v.1.15,2013-05-01 23:14:00,
2013-05-01 19:20:00,78.4,55.9,30.18,SSW,195,6.0,6.0,46,0.00,,,0.00,Wunderground v.1.15,2013-05-01 23:20:00,
2013-05-01 19:25:00,78.4,56.5,30.18,SSE,163,3.0,6.0,47,0.00,,,0.00,Wunderground v.1.15,2013-05-01 23:25:00,
2013-05-01 19:31:00,78.2,56.3,30.18,South,184,2.0,8.0,47,0.00,,,0.00,Wunderground v.1.15,2013-05-01 23:31:00,
2013-05-01 19:36:00,78.0,56.1,30.18,South,190,4.0,8.0,47,0.00,,,0.00,Wunderground v.1.15,2013-05-01 23:36:00,
2013-05-01 19:42:00,77.7,55.9,30.18,ESE,120,5.0,10.0,47,0.00,,,0.00,Wunderground v.1.15,2013-05-01 23:42:00,
2013-05-01 19:48:00,77.5,55.7,30.18,South,190,4.0,10.0,47,0.00,,,0.00,Wunderground v.1.15,2013-05-01 23:48:00,
2013-05-01 19:53:00,77.3,55.5,30.18,South,180,2.0,7.0,47,0.00,,,0.00,Wunderground v.1.15,2013-05-01 23:53:00,
2013-05-01 19:59:00,77.0,55.8,30.18,SSE,160,2.0,2.0,48,0.00,,,0.00,Wunderground v.1.15,2013-05-01 23:59:00,
2013-05-01 20:04:00,76.7,55.5,30.18,South,186,1.0,5.0,48,0.00,,,0.00,Wunderground v.1.15,2013-05-02 00:04:00,
2013-05-01 20:10:00,76.4,55.3,30.18,South,182,2.0,3.0,48,0.00,,,0.00,Wunderground v.1.15,2013-05-02 00:10:00,
2013-05-01 20:15:00,76.1,55.5,30.18,South,183,2.0,3.0,49,0.00,,,0.00,Wunderground v.1.15,2013-05-02 00:15:00,
2013-05-01 20:21:00,75.8,55.3,30.19,South,172,1.0,2.0,49,0.00,,,0.00,Wunderground v.1.15,2013-05-02 00:21:00,
2013-05-01 20:27:00,75.5,55.6,30.19,SSW,196,2.0,9.0,50,0.00,,,0.00,Wunderground v.1.15,2013-05-02 00:27:00,
2013-05-01 20:32:00,75.1,55.2,30.19,South,172,2.0,4.0,50,0.00,,,0.00,Wunderground v.1.15,2013-05-02 00:32:00,
2013-05-01 20:38:00,74.9,55.0,30.19,South,180,1.0,5.0,50,0.00,,,0.00,Wunderground v.1.15,2013-05-02 00:38:00,
2013-05-01 20:43:00,74.7,54.8,30.19,SSE,163,1.0,5.0,50,0.00,,,0.00,Wunderground v.1.15,2013-05-02 00:43:00,
2013-05-01 20:48:00,74.4,55.1,30.19,SSE,163,1.0,5.0,51,0.00,,,0.00,Wunderground v.1.15,2013-05-02 00:48:00,
2013-05-01 20:54:00,74.0,54.7,30.19,SSE,165,0.0,1.0,51,0.00,,,0.00,Wunderground v.1.15,2013-05-02 00:54:00,
2013-05-01 21:00:00,73.6,54.9,30.19,South,171,0.0,1.0,52,0.00,,,0.00,Wunderground v.1.15,2013-05-02 01:00:00,
2013-05-01 21:05:00,73.4,54.7,30.20,South,180,1.0,4.0,52,0.00,,,0.00,Wunderground v.1.15,2013-05-02 01:05:00,
2013-05-01 21:11:00,73.2,54.5,30.20,SSE,168,1.0,1.0,52,0.00,,,0.00,Wunderground v.1.15,2013-05-02 01:11:00,
2013-05-01 21:16:00,73.0,54.3,30.20,South,171,1.0,3.0,52,0.00,,,0.00,Wunderground v.1.15,2013-05-02 01:16:00,
2013-05-01 21:21:00,72.8,54.7,30.20,South,171,1.0,1.0,53,0.00,,,0.00,Wunderground v.1.15,2013-05-02 01:21:00,
2013-05-01 21:27:00,72.3,54.7,30.20,South,171,0.0,1.0,54,0.00,,,0.00,Wunderground v.1.15,2013-05-02 01:27:00,
2013-05-01 21:32:00,71.8,54.8,30.21,South,171,0.0,0.0,55,0.00,,,0.00,Wunderground v.1.15,2013-05-02 01:32:00,
2013-05-01 21:38:00,71.2,54.7,30.21,South,171,0.0,0.0,56,0.00,,,0.00,Wunderground v.1.15,2013-05-02 01:38:00,
2013-05-01 21:43:00,70.6,54.6,30.21,South,171,0.0,0.0,57,0.00,,,0.00,Wunderground v.1.15,2013-05-02 01:43:00,
2013-05-01 21:49:00,69.9,54.4,30.21,South,171,0.0,0.0,58,0.00,,,0.00,Wunderground v.1.15,2013-05-02 01:49:00,
2013-05-01 21:54:00,69.2,54.3,30.21,South,171,0.0,0.0,59,0.00,,,0.00,Wunderground v.1.15,2013-05-02 01:54:00,
2013-05-01 21:59:00,68.8,54.3,30.22,South,171,0.0,0.0,60,0.00,,,0.00,Wunderground v.1.15,2013-05-02 01:59:00,
2013-05-01 22:05:00,68.5,54.1,30.21,South,171,0.0,1.0,60,0.00,,,0.00,Wunderground v.1.15,2013-05-02 02:05:00,
2013-05-01 22:11:00,68.4,54.0,30.21,SSE,166,0.0,3.0,60,0.00,,,0.00,Wunderground v.1.15,2013-05-02 02:11:00,
2013-05-01 22:16:00,68.7,54.3,30.21,SSE,166,0.0,3.0,60,0.00,,,0.00,Wunderground v.1.15,2013-05-02 02:16:00,
2013-05-01 22:22:00,69.0,54.5,30.22,SSE,166,0.0,0.0,60,0.00,,,0.00,Wunderground v.1.15,2013-05-02 02:22:00,
2013-05-01 22:28:00,68.7,54.7,30.22,SSE,166,0.0,0.0,61,0.00,,,0.00,Wunderground v.1.15,2013-05-02 02:28:00,
2013-05-01 22:33:00,68.4,54.4,30.22,SSE,165,0.0,0.0,61,0.00,,,0.00,Wunderground v.1.15,2013-05-02 02:33:00,
2013-05-01 22:39:00,68.0,54.5,30.22,SSE,166,0.0,0.0,62,0.00,,,0.00,Wunderground v.1.15,2013-05-02 02:39:00,
2013-05-01 22:45:00,67.4,54.4,30.22,SSE,166,0.0,0.0,63,0.00,,,0.00,Wunderground v.1.15,2013-05-02 02:45:00,
2013-05-01 22:51:00,66.9,54.3,30.22,SSE,166,0.0,0.0,64,0.00,,,0.00,Wunderground v.1.15,2013-05-02 02:51:00,
2013-05-01 22:56:00,66.6,54.5,30.22,SSE,166,0.0,1.0,65,0.00,,,0.00,Wunderground v.1.15,2013-05-02 02:56:00,
2013-05-01 23:01:00,66.2,54.5,30.22,SSE,166,0.0,0.0,66,0.00,,,0.00,Wunderground v.1.15,2013-05-02 03:01:00,
2013-05-01 23:06:00,66.2,54.9,30.22,SSE,166,0.0,0.0,67,0.00,,,0.00,Wunderground v.1.15,2013-05-02 03:06:00,
2013-05-01 23:12:00,66.4,55.5,30.22,SSE,166,0.0,0.0,68,0.00,,,0.00,Wunderground v.1.15,2013-05-02 03:12:00,
2013-05-01 23:18:00,66.6,55.7,30.23,SSE,165,0.0,3.0,68,0.00,,,0.00,Wunderground v.1.15,2013-05-02 03:18:00,
2013-05-01 23:23:00,66.7,56.2,30.23,SSE,159,1.0,3.0,69,0.00,,,0.00,Wunderground v.1.15,2013-05-02 03:23:00,
2013-05-01 23:29:00,66.7,56.2,30.23,SSE,159,0.0,0.0,69,0.00,,,0.00,Wunderground v.1.15,2013-05-02 03:29:00,
2013-05-01 23:34:00,66.5,56.4,30.23,SSE,159,0.0,0.0,70,0.00,,,0.00,Wunderground v.1.15,2013-05-02 03:34:00,
2013-05-01 23:40:00,66.4,56.3,30.23,SSE,161,0.0,0.0,70,0.00,,,0.00,Wunderground v.1.15,2013-05-02 03:40:00,
2013-05-01 23:45:00,66.2,56.5,30.23,SSE,160,0.0,0.0,71,0.00,,,0.00,Wunderground v.1.15,2013-05-02 03:45:00,
2013-05-01 23:51:00,66.0,56.7,30.23,SSE,159,0.0,0.0,72,0.00,,,0.00,Wunderground v.1.15,2013-05-02 03:51:00,
2013-05-01 23:56:00,65.8,56.5,30.22,SSE,159,0.0,1.0,72,0.00,,,0.00,Wunderground v.1.15,2013-05-02 03:56:00,